Flight Track Log - Related Links

Times and Time Zones

All times are in EDT time to prevent confusion due to time zone crossing. See the SWA2166 flight status page for this flight to view local times or setup timezone preferences in your user account.

Time Position Orientation Groundspeed Altitude Reporting Facility
EDT Latitude Longitude Course Direction KTS MPH feet Rate Location/Type
11:13PM 33.6525 -117.8817 194° South 143 165 33,000  Level Los Angeles Center
11:14PM 33.6092 -117.8947 194° South 156 180 2,700 -14,081 Descending Los Angeles Center
11:15PM 33.5706 -117.8958 181° South 167 192 3,900 2,000 Climbing Los Angeles Center
11:16PM 33.4992 -117.8392 146° Southeast 263 303 6,800 1,512 Climbing Los Angeles Center
11:17PM 33.4747 -117.7492 108° East 286 329 7,000 194 Climbing Los Angeles Center
11:18PM 33.4989 -117.6564 73° East 289 333 7,200 1,548 Climbing Los Angeles Center
11:19PM 33.5408 -117.5731 59° Northeast 290 334 10,200 2,468 Climbing Los Angeles Center
11:20PM 33.5783 -117.4567 69° East 362 417 12,300 2,732 Climbing Los Angeles Center
11:21PM 33.5533 -117.3231 103° East 379 436 15,800 3,220 Climbing Los Angeles Center
11:22PM 33.4939 -117.2161 124° Southeast 397 457 18,900 2,565 Climbing Los Angeles Center
11:23PM 33.4164 -117.1358 139° Southeast 404 465 21,100 2,081 Climbing Los Angeles Center
11:24PM 33.3089 -117.0244 139° Southeast 428 493 23,200 2,129 Climbing Los Angeles Center
11:25PM 33.2156 -116.9294 140° Southeast 440 506 25,500 1,854 Climbing Los Angeles Center
11:26PM 33.1231 -116.8317 138° Southeast 443 510 27,000 732 Climbing Los Angeles Center
11:27PM 33.0281 -116.7333 139° Southeast 449 517 27,000 823 Level Los Angeles Center
11:28PM 32.9697 -116.6064 119° Southeast 452 520 28,700 2,081 Climbing Los Angeles Center
11:29PM 32.9561 -116.4383 95° East 458 527 31,300 2,081 Climbing Los Angeles Center
11:30PM 32.9419 -116.2922 97° East 457 526 33,000 823 Climbing Los Angeles Center
11:31PM 32.9272 -116.1506 97° East 450 518 33,000  Level Los Angeles Center
11:32PM 32.9128 -116.0056 97° East 446 513 33,000  Level Los Angeles Center
11:33PM 32.8950 -115.8306 97° East 446 513 33,000  Level Los Angeles Center
11:35PM 32.8806 -115.6853 97° East 446 513 33,000 -48 Level Los Angeles Center
11:36PM 32.8664 -115.5408 97° East 444 511 32,900 -532 Descending Los Angeles Center
11:37PM 32.8514 -115.3969 97° East 444 511 31,900 -919 Descending Los Angeles Center
11:38PM 32.8361 -115.2492 97° East 447 514 31,000 -919 Descending Los Angeles Center
11:39PM 32.8225 -115.1008 96° East 452 520 30,000 -1,065 Descending Los Angeles Center
11:40PM 32.8036 -114.9208 97° East 455 524 28,800 -1,065 Descending Los Angeles Center
11:41PM 32.7881 -114.7728 97° East 454 522 27,800 -1,016 Descending Los Angeles Center
11:42PM 32.7728 -114.6344 97° East 429 494 26,700 -1,016 Descending Los Angeles Center
11:43PM 32.7700 -114.4983 91° East 417 480 25,700 -823 Descending Los Angeles Center
11:44PM 32.7728 -114.3625 89° East 414 476 25,000 -341 Descending Los Angeles Center
11:45PM 32.7736 -114.2261 90° East 414 476 25,000  Level Los Angeles Center
11:46PM 32.7758 -114.0908 89° East 412 474 25,000  Level Los Angeles Center
11:47PM 32.7806 -113.9294 88° East 408 470 25,000  Level Los Angeles Center
11:48PM 32.8053 -113.7953 78° East 409 471 25,000  Level Los Angeles Center
11:49PM 32.8358 -113.6667 74° East 405 466 25,000  Level Los Angeles Center
11:50PM 32.8692 -113.5922 62° Northeast 412 474 25,000 -309 Level Albuquerque Center
11:51PM 32.8706 -113.4567 89° East 410 472 24,500 -732 Descending Albuquerque Center
11:52PM 32.8739 -113.3217 88° East 409 471 23,500 -976 Descending Albuquerque Center
11:53PM 32.8753 -113.1886 89° East 407 468 22,500 -1,317 Descending Albuquerque Center
11:54PM 32.8769 -113.0569 89° East 403 464 20,800 -2,390 Descending Albuquerque Center
11:55PM 32.8783 -112.9289 89° East 394 453 17,600 -2,634 Descending Albuquerque Center
11:56PM 32.8800 -112.8058 89° East 381 438 15,400 -2,177 Descending Albuquerque Center
11:57PM 32.8800 -112.6781 90° East 332 382 13,100 -2,000 Descending Albuquerque Center
11:58PM 32.8814 -112.5761 89° East 316 364 11,300 -1,512 Descending Albuquerque Center
11:59PM 32.8822 -112.4761 89° East 306 352 10,000 -634 Descending Albuquerque Center
12:00AM 32.8828 -112.3797 90° East 296 341 10,000  Level Albuquerque Center
12:01AM 32.8842 -112.2833 89° East 293 337 10,000  Level Albuquerque Center
12:02AM 32.9053 -112.1978 74° East 297 342 10,000  Level Albuquerque Center
12:03AM 32.9833 -112.1786 12° North 287 330 10,000  Level Albuquerque Center
12:04AM 33.0769 -112.1536 13° North 285 328 10,000 -341 Level Albuquerque Center
12:05AM 33.1419 -112.1011 34° Northeast 292 336 9,300 -488 Descending Albuquerque Center
12:06AM 33.1903 -112.0319 50° Northeast 276 318 9,000 -439 Descending Albuquerque Center
12:07AM 33.2589 -112.0267 North 247 284 8,400 -787 Descending Albuquerque Center
12:08AM 33.3183 -112.0583 336° Northwest 243 280 7,400 -976 Descending Albuquerque Center
12:09AM 33.3375 -112.1303 288° West 234 269 6,400 -976 Descending Albuquerque Center
12:10AM 33.3758 -112.1772 314° West 235 270 5,400 -984 Descending Albuquerque Center
12:11AM 33.4283 -112.1644 11° North 193 222 4,400 -1,220 Descending Albuquerque Center
12:12AM 33.4272 -112.1100 91° East 170 196 2,900 -1,415 Descending Albuquerque Center
12:13AM 33.4292 -112.0550 88° East 141 162 1,500 -885 Descending Albuquerque Center
12:14AM 33.4289 -112.0122 90° East 138 159 1,100 -393 Descending Albuquerque Center
12:16AM 33.4333 -112.0000 North  Level FlightAware Approximate

Login

Don't have an account? Register now (free) for customized features, flight alerts, and more!